Wind_Speed
27 26 27 28 26 26 26 27 28 27 25 22 22 21 21 21 22 21 22 22 23 22 22 22 22 22 22 22 22 22 22 22 21 21 21 21 21 22 22 23 23 23 23 23
28 28 29 29 28 28 28 28 29 28 27 24 23 23 23 23 24 24 25 25 25 24 24 24 24 23 23 24 24 23 23 23 23 23 22 22 22 23 23 23 24 25 25 25
28 28 28 29 28 29 29 29 29 29 28 26 25 25 26 25 25 26 27 26 26 26 26 25 24 24 24 24 25 25 24 24 25 25 23 23 23 24 24 24 25 25 26 26
26 26 29 27 27 28 29 29 29 29 29 29 28 27 27 27 27 27 28 27 26 26 25 25 25 25 25 25 25 25 25 26 26 25 24 24 25 25 26 26 26 26 26 27
26 27 28 27 26 27 28 28 28 29 29 30 29 27 28 28 28 27 27 26 26 26 26 26 26 26 26 26 26 25 25 26 27 26 25 25 25 26 26 26 26 27 27 28
28 28 29 27 27 27 28 29 28 29 29 29 29 28 27 27 27 27 27 27 26 26 26 26 26 26 26 27 26 25 26 27 27 27 27 27 27 26 26 26 26 27 27 28
28 28 28 27 27 27 29 29 28 29 29 29 29 28 28 28 28 28 28 28 27 27 27 28 28 28 27 27 27 27 27 26 26 26 27 27 28 27 26 27 28 28 28 28
28 28 28 26 27 28 29 29 29 30 30 29 30 29 29 28 29 29 29 30 29 29 29 29 29 29 28 27 27 27 27 27 26 26 26 27 28 27 27 27 27 27 27 27
29 28 28 28 28 29 29 29 30 29 28 28 29 29 29 29 29 30 31 31 31 31 30 29 29 29 28 26 27 27 27 27 27 27 27 28 28 27 27 26 26 26 26 26
29 29 28 28 28 28 29 29 29 29 28 28 28 29 30 30 30 31 31 31 32 31 30 29 29 29 29 29 28 28 28 28 28 29 28 28 29 28 27 26 26 26 26 25
30 30 29 29 28 28 29 29 29 29 29 29 30 30 30 31 31 32 32 32 31 30 31 31 31 30 30 30 29 29 29 28 29 29 29 29 29 28 28 27 27 26 26 26
29 29 29 29 29 29 29 29 29 30 30 31 31 31 31 32 33 32 32 31 32 31 32 32 32 31 31 31 29 29 29 29 29 29 29 29 28 27 27 27 26 26 26 26
29 29 29 29 29 29 28 29 29 30 30 30 31 32 31 32 32 32 32 32 32 32 32 32 32 32 32 31 31 31 30 30 29 29 28 28 28 27 27 27 27 27 27 27
27 27 28 28 28 28 28 28 28 30 30 31 31 32 32 32 32 32 32 32 31 31 31 31 32 33 32 32 32 31 30 29 29 28 28 28 28 28 27 27 27 27 27 27
26 26 26 27 26 27 28 28 29 29 31 31 32 32 31 31 31 31 31 31 31 31 30 31 31 31 31 31 30 29 29 28 28 28 28 28 28 28 28 28 27 27 27 27
24 24 24 25 26 28 28 29 29 29 29 29 30 30 29 29 29 30 30 30 29 29 29 29 30 30 29 29 28 28 27 27 27 27 27 28 28 28 28 28 27 27 27 27
23 24 25 26 27 27 28 28 28 27 27 28 28 29 29 29 29 29 29 29 28 28 28 28 28 28 28 28 28 27 27 27 27 27 27 26 27 28 28 28 28 28 27 28
24 24 24 24 25 26 27 27 27 27 27 28 28 29 28 28 28 28 27 28 28 27 27 27 28 28 28 28 28 27 27 27 27 28 27 26 26 26 27 27 27 27 27 27
23 23 23 24 24 25 25 25 25 26 26 27 28 28 28 28 27 27 27 27 27 28 28 28 28 28 27 27 27 27 27 27 27 27 26 26 26 26 26 27 27 27 27 28
21 22 23 23 23 22 23 23 24 24 24 25 25 26 26 25 25 25 26 25 25 26 27 27 27 27 27 26 27 27 27 27 26 26 25 25 25 25 26 26 27 27 27 28
20 21 21 21 20 21 21 21 22 22 23 24 24 24 24 24 24 24 24 24 24 25 25 26 26 26 26 26 27 27 27 27 26 26 26 25 25 25 26 27 27 27 27 27
19 18 18 18 18 19 20 20 21 22 22 22 21 21 21 21 22 23 23 24 23 24 25 25 25 25 26 26 26 27 27 27 27 26 26 26 25 26 26 27 28 28 28 28
16 16 17 18 18 19 20 21 20 21 21 21 20 20 20 21 21 22 24 24 24 24 24 24 24 25 25 26 26 26 26 26 26 26 26 26 25 26 26 27 27 27 28 28
16 15 16 18 19 19 19 20 20 19 20 20 20 20 20 20 21 22 22 23 24 23 22 23 23 24 25 26 26 26 26 26 26 25 25 25 25 26 26 26 27 27 27 28
15 15 16 18 19 19 20 20 20 19 19 19 19 19 19 19 20 21 21 22 22 21 21 22 23 23 24 24 25 25 25 25 25 25 25 24 25 26 26 26 26 27 27 27
14 15 17 18 20 20 20 20 20 20 19 18 19 19 19 19 18 19 19 19 19 19 19 19 20 21 22 22 22 23 23 23 23 24 25 24 24 25 25 26 26 27 27 27
15 16 16 17 18 19 19 18 19 19 19 19 19 20 20 19 19 18 18 19 19 18 18 19 20 21 21 21 21 22 22 22 22 24 24 23 24 24 24 25 25 26 26 26
Wind_Direction
245 242 242 242 243 244 247 251 255 258 261 264 266 269 269 266 268 269 271 273 276 277 278 280 281 282 282 282 280 278 278 278 278 276 274 271 270 274 272 272 273 274 276 276
245 243 242 242 242 244 246 251 254 255 259 261 263 265 268 269 270 271 272 273 275 276 275 276 277 278 281 282 281 279 277 277 277 276 274 271 272 275 276 275 274 275 275 277
247 245 245 244 244 244 247 249 252 254 256 259 261 264 266 267 270 271 272 275 275 274 274 274 274 276 277 278 279 280 279 279 279 277 274 272 272 274 276 275 275 277 277 279
246 245 245 246 246 247 249 251 253 255 256 259 264 266 267 267 269 272 275 276 275 274 273 276 277 277 277 277 278 279 280 278 279 277 274 274 274 274 276 276 276 277 278 278
245 245 246 247 250 251 253 255 255 256 259 261 263 265 267 269 271 274 274 274 274 275 276 276 276 276 276 277 278 279 280 280 280 277 275 274 275 274 276 277 277 278 279 280
250 250 250 250 252 253 255 257 258 259 261 262 262 264 267 268 269 270 271 270 272 274 275 276 275 276 278 278 278 279 280 279 279 277 276 276 276 275 275 276 277 279 279 279
252 254 255 255 256 257 257 260 261 260 262 263 263 264 266 268 269 269 270 269 270 271 274 276 276 277 278 277 278 279 280 279 278 277 277 277 278 278 276 277 279 279 278 278
251 254 255 256 256 256 259 261 263 262 263 264 262 263 265 267 267 268 270 271 271 271 272 274 276 276 276 275 275 276 277 277 276 275 277 278 279 278 277 278 279 279 278 277
255 258 258 258 258 257 259 262 261 262 262 262 261 262 263 265 267 269 270 270 270 270 272 273 274 276 273 274 274 274 274 275 275 275 276 278 278 277 277 278 278 278 279 279
255 258 260 260 260 261 260 261 262 261 261 261 263 264 267 267 267 269 270 270 270 270 271 273 274 275 275 274 273 272 274 274 274 275 276 278 278 276 275 276 277 278 279 279
255 257 259 261 262 264 263 263 263 262 263 265 266 266 267 269 270 271 270 271 269 269 271 272 273 273 274 274 273 272 273 274 274 274 275 277 278 276 276 276 276 277 277 277
257 258 260 263 264 264 265 264 265 266 266 266 265 265 267 270 272 273 272 272 271 271 271 272 272 271 272 274 273 272 273 274 274 274 274 275 276 276 277 277 277 277 278 277
257 260 261 264 264 265 264 264 266 267 268 267 267 267 268 271 272 272 271 272 270 269 270 270 270 270 272 272 271 271 272 272 273 273 272 273 274 276 276 277 276 276 277 276
258 259 262 263 265 266 266 265 267 268 269 268 269 270 269 271 272 272 272 271 271 270 270 270 270 269 270 272 272 271 271 273 273 273 273 273 273 274 275 276 276 276 276 275
259 260 261 262 265 267 266 266 267 270 271 269 268 270 270 270 271 272 272 271 271 270 269 271 270 270 270 271 272 272 273 273 273 274 274 274 273 273 274 275 274 275 274 274
258 259 261 264 267 268 268 268 270 270 271 271 269 269 271 272 273 274 274 272 271 270 269 269 270 269 269 271 271 272 274 273 273 274 274 274 274 274 274 274 274 275 275 274
259 260 263 266 268 269 271 272 272 272 273 274 274 273 271 271 272 274 272 270 270 270 269 268 268 268 268 270 271 272 273 273 272 273 275 275 275 274 274 273 273 274 275 274
261 263 266 269 270 271 273 275 277 276 277 277 277 276 273 271 272 272 270 268 267 267 267 266 267 267 268 269 270 271 272 273 273 274 275 275 274 274 274 273 273 274 275 275
263 265 268 272 274 275 277 279 279 279 280 280 277 276 275 272 270 269 268 267 266 265 266 266 266 266 267 268 269 271 272 273 274 275 274 275 275 275 274 274 275 274 274 276
263 265 269 272 274 276 278 278 279 279 282 281 278 278 276 273 271 269 269 268 266 266 265 265 265 265 267 269 270 271 271 271 272 273 274 275 276 276 274 274 275 276 277 276
267 269 271 271 272 277 279 279 280 280 281 280 280 279 277 274 271 269 269 268 268 266 265 266 267 267 268 270 271 271 270 269 270 273 275 275 275 276 276 276 276 278 278 278
267 267 271 272 273 276 278 280 281 282 281 279 278 279 278 276 272 270 270 270 269 267 267 268 269 269 269 271 272 270 269 270 271 273 274 275 275 276 277 278 278 278 278 278
272 270 272 275 277 279 281 283 285 284 282 281 279 278 278 278 277 275 273 271 270 269 269 270 271 270 269 269 271 271 270 271 273 274 275 275 277 278 278 278 278 278 279 278
276 276 277 279 280 282 283 284 285 285 284 282 282 283 282 280 278 276 275 274 274 272 271 272 272 271 270 269 269 270 270 272 274 275 275 276 277 278 279 278 278 279 279 278
280 279 279 282 283 285 286 284 285 286 285 283 283 283 282 281 280 278 278 277 275 273 272 273 273 271 272 274 274 273 272 274 274 275 275 275 276 278 279 278 277 278 279 279
280 283 285 284 286 286 286 285 285 286 287 285 284 283 283 283 284 283 280 279 279 276 275 274 272 273 275 277 278 277 275 275 279 281 280 280 280 279 279 277 277 278 279 279
284 288 289 287 287 287 285 285 285 285 285 286 286 285 284 283 283 282 280 280 281 280 278 279 279 280 281 281 281 281 279 278 279 281 280 280 281 282 281 278 276 277 277 278
Height
5808 5810 5811 5812 5814 5815 5816 5817 5818 5819 5820 5822 5823 5823 5823 5823 5823 5824 5824 5824 5824 5824 5823 5823 5823 5823 5822 5822 5821 5821 5820 5819 5818 5818 5817 5817 5816 5815 5815 5814 5814 5813 5813 5812
5800 5802 5803 5804 5807 5808 5809 5810 5811 5812 5814 5816 5816 5817 5817 5817 5817 5817 5817 5817 5817 5817 5817 5816 5816 5816 5815 5815 5814 5813 5812 5812 5811 5811 5810 5809 5809 5808 5808 5807 5807 5806 5805 5805
5792 5794 5795 5797 5800 5801 5802 5803 5805 5805 5808 5809 5809 5810 5810 5810 5810 5810 5810 5809 5809 5809 5809 5808 5808 5808 5808 5807 5807 5806 5805 5804 5803 5803 5802 5802 5802 5801 5801 5800 5799 5799 5798 5797
5784 5787 5787 5792 5792 5794 5795 5796 5797 5798 5800 5801 5802 5803 5803 5803 5803 5802 5802 5802 5801 5801 5801 5800 5800 5800 5800 5799 5799 5798 5797 5796 5796 5794 5794 5795 5794 5794 5793 5792 5792 5791 5790 5789
5776 5777 5779 5783 5784 5786 5787 5788 5789 5791 5792 5793 5794 5794 5795 5795 5795 5795 5795 5794 5793 5794 5794 5793 5792 5793 5792 5791 5790 5790 5789 5789 5788 5788 5787 5787 5786 5786 5785 5784 5783 5782 5782 5780
5768 5769 5771 5776 5777 5777 5779 5779 5781 5782 5783 5785 5786 5787 5788 5787 5787 5788 5788 5787 5787 5786 5785 5785 5784 5785 5785 5784 5783 5782 5781 5781 5780 5780 5779 5779 5778 5777 5777 5776 5775 5774 5773 5772
5761 5761 5763 5767 5768 5769 5771 5773 5773 5773 5774 5775 5776 5778 5778 5778 5779 5779 5779 5779 5779 5778 5777 5777 5776 5776 5776 5775 5775 5774 5773 5772 5772 5772 5771 5771 5770 5769 5768 5767 5767 5765 5764 5763
5754 5754 5758 5759 5760 5761 5763 5763 5764 5764 5765 5766 5767 5768 5769 5770 5770 5771 5771 5771 5770 5769 5769 5768 5768 5767 5767 5767 5766 5765 5765 5764 5764 5763 5763 5762 5762 5761 5760 5759 5758 5756 5755 5754
5747 5749 5750 5751 5752 5753 5754 5754 5755 5755 5756 5757 5758 5759 5760 5761 5762 5762 5762 5762 5761 5761 5760 5759 5759 5758 5757 5757 5757 5757 5756 5756 5755 5755 5754 5754 5753 5752 5751 5750 5749 5748 5746 5745
5739 5740 5741 5743 5744 5745 5745 5745 5746 5747 5748 5749 5750 5750 5752 5752 5753 5753 5753 5752 5752 5752 5751 5751 5750 5749 5749 5748 5748 5748 5748 5747 5746 5746 5745 5744 5744 5743 5742 5741 5740 5739 5738 5737
5731 5732 5733 5734 5735 5736 5737 5737 5738 5738 5739 5740 5741 5742 5742 5742 5743 5743 5743 5743 5742 5742 5742 5741 5741 5741 5740 5739 5738 5739 5738 5738 5737 5737 5736 5735 5735 5734 5733 5732 5731 5731 5730 5729
5723 5725 5726 5727 5727 5728 5728 5729 5729 5730 5731 5731 5732 5732 5733 5733 5733 5733 5733 5732 5733 5732 5732 5732 5731 5731 5730 5729 5729 5729 5729 5728 5728 5727 5727 5726 5726 5725 5724 5724 5723 5722 5721 5720
5716 5717 5718 5719 5719 5719 5719 5720 5720 5721 5721 5721 5722 5722 5723 5723 5723 5723 5723 5722 5722 5722 5722 5721 5721 5721 5721 5720 5720 5720 5719 5719 5718 5718 5717 5717 5717 5716 5716 5715 5714 5713 5712 5711
5708 5709 5710 5711 5711 5711 5711 5711 5711 5712 5711 5711 5712 5712 5712 5712 5713 5712 5712 5712 5712 5712 5711 5711 5711 5711 5711 5710 5710 5710 5709 5709 5709 5709 5708 5708 5707 5707 5707 5706 5705 5704 5703 5703
5701 5701 5702 5703 5703 5703 5702 5702 5702 5702 5702 5701 5702 5702 5702 5702 5702 5702 5702 5702 5702 5701 5701 5701 5701 5701 5701 5701 5701 5700 5700 5700 5700 5699 5699 5698 5698 5698 5697 5697 5696 5695 5695 5694
5693 5694 5694 5694 5694 5694 5694 5693 5693 5693 5693 5692 5692 5692 5692 5692 5691 5691 5691 5691 5691 5691 5691 5691 5692 5692 5692 5692 5691 5691 5691 5690 5690 5690 5689 5688 5688 5688 5688 5687 5687 5686 5685 5685
5684 5685 5685 5686 5685 5685 5685 5685 5684 5683 5683 5683 5682 5682 5681 5681 5681 5681 5681 5681 5681 5681 5681 5682 5682 5682 5682 5682 5682 5682 5682 5682 5681 5680 5680 5679 5678 5678 5678 5677 5677 5677 5676 5675
5676 5677 5677 5677 5677 5677 5676 5676 5675 5675 5674 5673 5672 5671 5670 5670 5670 5671 5671 5671 5671 5671 5672 5672 5673 5673 5673 5673 5673 5673 5673 5673 5672 5671 5670 5670 5669 5669 5668 5668 5667 5667 5666 5665
5668 5669 5669 5669 5669 5668 5668 5667 5667 5666 5665 5664 5663 5662 5660 5660 5660 5661 5661 5661 5661 5662 5662 5663 5663 5663 5664 5664 5664 5664 5664 5663 5662 5662 5661 5660 5660 5659 5658 5658 5658 5657 5657 5656
5661 5661 5661 5661 5661 5661 5661 5660 5659 5658 5657 5655 5654 5653 5652 5651 5651 5652 5652 5652 5652 5652 5653 5653 5653 5654 5655 5655 5655 5655 5654 5653 5653 5653 5652 5651 5651 5650 5649 5649 5649 5648 5647 5647
5654 5655 5654 5654 5655 5654 5654 5653 5651 5651 5650 5648 5647 5645 5644 5643 5643 5643 5643 5643 5643 5643 5644 5644 5644 5645 5645 5646 5645 5645 5645 5644 5644 5644 5643 5642 5642 5641 5641 5640 5640 5639 5638 5637
5648 5648 5648 5648 5648 5648 5647 5646 5645 5644 5642 5641 5639 5638 5637 5636 5635 5635 5635 5635 5635 5635 5635 5635 5636 5636 5637 5636 5636 5636 5636 5635 5635 5634 5634 5633 5632 5632 5632 5631 5630 5630 5629 5628
5642 5642 5641 5641 5641 5641 5640 5639 5638 5636 5635 5634 5632 5631 5630 5629 5628 5628 5628 5627 5627 5627 5627 5628 5628 5628 5628 5627 5627 5627 5626 5626 5626 5625 5625 5624 5624 5623 5622 5622 5621 5620 5619 5618
5637 5636 5636 5636 5635 5635 5633 5632 5631 5630 5628 5627 5626 5625 5623 5622 5621 5621 5620 5619 5618 5618 5619 5619 5619 5619 5619 5618 5618 5617 5617 5617 5617 5616 5616 5615 5614 5614 5613 5612 5611 5610 5610 5609
5631 5631 5631 5630 5629 5628 5627 5626 5625 5623 5622 5621 5620 5618 5617 5616 5615 5614 5612 5611 5610 5610 5611 5610 5610 5610 5610 5610 5609 5609 5608 5608 5608 5607 5607 5605 5605 5604 5603 5602 5602 5601 5600 5599
5626 5626 5625 5624 5623 5622 5621 5620 5618 5617 5616 5614 5613 5612 5611 5610 5608 5607 5606 5605 5604 5604 5603 5603 5602 5602 5602 5602 5601 5600 5600 5600 5599 5598 5598 5597 5596 5595 5594 5593 5592 5591 5590 5589
5622 5621 5620 5619 5618 5616 5615 5614 5613 5612 5610 5609 5608 5607 5605 5604 5603 5602 5601 5600 5599 5598 5597 5597 5596 5596 5595 5595 5594 5593 5592 5592 5591 5590 5589 5588 5587 5586 5585 5584 5583 5582 5581 5580